Terug naar catalogus

DELTA 1 DEB

YO

ActiefHEO
NORAD 28144·DEBRIS·🇺🇸 United States

Gelanceerd Jul 8, 1976 vanaf Cape Canaveral Space Force Station

Loading…

Volgende Passages (komende 24 uur)

TLE

VersSource: Space-Track

Epoch: Sep 8, 2026, 03:49 UTC

1 28144U 76066D   26251.15935884  .00001547  00000-0  83042-3 0  9990
2 28144  24.5658 292.3859 4399205 258.6843  50.2759  6.48969425330239

Volg DELTA 1 DEB in realtime met AllMySat

Download on the App Store